This is the latest recevied weather packets stored in our database for station/object N0FDH. If no packets are shown the sender has not sent any weather packets the latest 10 day(s).
| Time | Temp. | Humidity | Pressure | Rain* | Wind** | Luminosity | Snow |
|---|---|---|---|---|---|---|---|
| 1777796519 | 11.11° C | 62% | 1006.5 hPa | 0 mm | - | 0 W/m² | - |
| 1777796214 | 11.11° C | 65% | 1006.6 hPa | 0 mm | - | 0 W/m² | - |
| 1777795911 | 10.56° C | 63% | 1006.8 hPa | 0 mm | - | 0 W/m² | - |
| 1777795606 | 10.56° C | 64% | 1006.3 hPa | 0 mm | - | 0 W/m² | - |
| 1777795303 | 10.56° C | 64% | 1006.4 hPa | 0 mm | - | 0 W/m² | - |
| 1777795000 | 11.11° C | 64% | 1006.4 hPa | 0 mm | - | 0 W/m² | - |
| 1777794696 | 11.11° C | 64% | 1006.6 hPa | 0 mm | - | 0 W/m² | - |
| 1777794392 | 11.11° C | 62% | 1006.7 hPa | 0 mm | - | 0 W/m² | - |
| 1777794088 | 11.11° C | 63% | 1006.7 hPa | 0 mm | - | 0 W/m² | - |
| 1777793784 | 11.11° C | 62% | 1006.7 hPa | 0 mm | - | 0 W/m² | - |
| 1777793483 | 11.11° C | 64% | 1006.6 hPa | 0 mm | - | 0 W/m² | - |
| 1777793180 | 11.11° C | 64% | 1006.9 hPa | 0 mm | - | 0 W/m² | - |
| 1777792877 | 11.11° C | 61% | 1007.1 hPa | 0 mm | - | 0 W/m² | - |
| 1777792574 | 11.67° C | 59% | 1007 hPa | 0 mm | - | 0 W/m² | - |
| 1777792271 | 11.67° C | 60% | 1006.9 hPa | 0 mm | - | 0 W/m² | - |
| 1777791968 | 11.67° C | 60% | 1006.9 hPa | 0 mm | - | 0 W/m² | - |
| 1777791666 | 11.67° C | 60% | 1006.9 hPa | 0 mm | - | 0 W/m² | - |
| 1777791362 | 11.67° C | 60% | 1007.2 hPa | 0 mm | - | 0 W/m² | - |
| 1777791060 | 11.67° C | 59% | 1007.1 hPa | 0 mm | - | 0 W/m² | - |
| 1777790757 | 11.67° C | 59% | 1007.1 hPa | 0 mm | - | 0 W/m² | - |
| 1777790454 | 11.67° C | 60% | 1007.4 hPa | 0 mm | - | 0 W/m² | - |
| 1777790151 | 12.22° C | 59% | 1007.3 hPa | 0 mm | - | 0 W/m² | - |
| 1777789850 | 12.22° C | 59% | 1007.5 hPa | 0 mm | - | 0 W/m² | - |
| 1777789548 | 12.22° C | 59% | 1007.3 hPa | 0 mm | - | 0 W/m² | - |
| 1777789246 | 12.22° C | 59% | 1007.2 hPa | 0 mm | - | 0 W/m² | - |
* Rain latest hour (hover to see other rain measurements)
** Current wind speed in m/s (hover to see current wind gust speed)